This is the latest recevied weather packets stored in our database for station/object XQ6AK-15. If no packets are shown the sender has not sent any weather packets the latest 10 day(s).
| Time | Temp. | Humidity | Pressure | Rain* | Wind** | Luminosity | Snow |
|---|---|---|---|---|---|---|---|
| 1787957596 | 7.78° C | 99% | 1006.5 hPa | 0 mm | - | 0 W/m² | - |
| 1787957286 | 7.78° C | 99% | 1006.6 hPa | 0 mm | - | 0 W/m² | - |
| 1787956986 | 8.33° C | 99% | 1006.6 hPa | 0 mm | - | 0 W/m² | - |
| 1787956685 | 8.33° C | 99% | 1006.6 hPa | 0 mm | - | 0 W/m² | - |
| 1787956381 | 8.33° C | 99% | 1006.6 hPa | 0 mm | - | 0 W/m² | - |
| 1787956075 | 8.33° C | 99% | 1006.3 hPa | 0 mm | - | 0 W/m² | - |
| 1787955771 | 8.33° C | 99% | 1006.4 hPa | 0 mm | - | 1 W/m² | - |
| 1787955467 | 8.33° C | 99% | 1006.4 hPa | 0 mm | - | 2 W/m² | - |
| 1787955165 | 8.33° C | 99% | 1006.3 hPa | 0 mm | - | 2 W/m² | - |
| 1787954861 | 8.33° C | 99% | 1006.5 hPa | 0 mm | - | 4 W/m² | - |
| 1787954557 | 8.33° C | 99% | 1006.4 hPa | 0 mm | - | 6 W/m² | - |
| 1787954256 | 8.33° C | 99% | 1006.6 hPa | 0 mm | - | 6 W/m² | - |
| 1787953951 | 8.33° C | 99% | 1006.3 hPa | 0 mm | - | 6 W/m² | - |
| 1787953649 | 8.33° C | 99% | 1006.5 hPa | 0 mm | - | 10 W/m² | - |
| 1787953344 | 8.33° C | 99% | 1006.6 hPa | 0 mm | - | 19 W/m² | - |
| 1787953043 | 8.89° C | 99% | 1006.5 hPa | 0 mm | - | 10 W/m² | - |
| 1787952742 | 8.89° C | 99% | 1006.4 hPa | 1.27 mm | - | 12 W/m² | - |
| 1787952436 | 8.89° C | 99% | 1006.3 hPa | 3.05 mm | - | 17 W/m² | - |
| 1787952133 | 8.89° C | 99% | 1006.1 hPa | 4.83 mm | - | 25 W/m² | - |
| 1787951832 | 8.89° C | 99% | 1006.3 hPa | 7.87 mm | - | 22 W/m² | - |
| 1787951527 | 8.89° C | 99% | 1006.4 hPa | 6.1 mm | - | 13 W/m² | - |
| 1787951224 | 8.89° C | 99% | 1006.4 hPa | 6.1 mm | - | 10 W/m² | - |
| 1787950919 | 8.89° C | 99% | 1006.5 hPa | 8.89 mm | - | 10 W/m² | - |
| 1787950609 | 8.89° C | 99% | 1006.5 hPa | 6.1 mm | - | 4 W/m² | - |
| 1787950304 | 8.89° C | 99% | 1006.3 hPa | 4.83 mm | - | 3 W/m² | - |
* Rain latest hour (hover to see other rain measurements)
** Current wind speed in m/s (hover to see current wind gust speed)